Flag for Norway Weather past 2 weeks in Rygge, Norway

Now
63 °F

Sunny.


Feels Like: 63 °F
Forecast: 61 / 72 °F
Wind: 5 mph from Southeast

Location: Rygge

Current Time: Jul 30, 2014 at 7:18:18 AM

Latest Report: Jul 30, 2014 at 6:00 AM


Visibility: 14 mi

Pressure: 29.66 "Hg

Humidity: 90%

Dew point: 60 °F

Location of RyggeLocation

Historic Weather in Rygge — Graph

°F

Rygge temperature yesterday

Maximum temperature yesterday: 76 °F (at 11:00 AM)
Minimum temperature yesterday: 65 °F (at 11:00 PM)
Average temperature yesterday: 72 °F

Past Weeks' High & Low Weather Summary

 TemperatureHumidityPressure
High90 °F (Jul 23, 5:00 PM)97% (Jul 18, 4:00 AM)30.31 "Hg (Jul 18, 4:00 AM)
Low55 °F (Jul 19, 5:00 AM)26% (Jul 23, 6:00 PM)29.66 "Hg (Jul 30, 6:00 AM)
Average71 °F64%30.10 "Hg
* Reported Jul 16 11:00 AM — Jul 30 6:00 AM, Rygge, Weather by CustomWeather, © 2014

Note: Actual official high and low records may vary slightly from our data, if they occured in-between our weather recording intervals... More about our weather records

Advertising

Rygge weather history for previous 24 hours

 ConditionsComfort  
Time TempWeatherWind HumidityBarometerVisibility
6:00 AM
Jul 30
63 °FSunny.5 mph90%29.66 "Hg14 mi
5:00 AM61 °FSunny.5 mph93%29.67 "Hg13 mi
4:00 AM62 °FPassing clouds.5 mph91%29.68 "Hg15 mi
3:00 AM62 °FPassing clouds.3 mph90%29.69 "Hg14 mi
2:00 AM61 °FPassing clouds.3 mph88%29.71 "Hg16 mi
1:00 AM64 °FPassing clouds.3 mph84%29.72 "Hg17 mi
12:00 AM65 °FPassing clouds.5 mph81%29.74 "Hg18 mi
11:00 PM
Jul 29
65 °FPassing clouds.5 mph80%29.75 "Hg19 mi
10:00 PM66 °FClear.3 mph78%29.75 "Hg19 mi
9:00 PM69 °FSunny.6 mph73%29.75 "Hg19 mi
8:00 PM71 °FPassing clouds.6 mph69%29.76 "Hg19 mi
7:00 PM73 °FSunny.7 mph64%29.77 "Hg25 mi
6:00 PM75 °FSunny.6 mph60%29.78 "Hg22 mi
5:00 PM75 °FSunny.8 mph65%29.79 "Hg19 mi
4:00 PM75 °FSunny.8 mph64%29.80 "Hg17 mi
3:00 PM75 °FSunny.8 mph56%29.82 "Hg19 mi
2:00 PM74 °FSunny.7 mph59%29.84 "Hg19 mi
1:00 PM75 °FSunny.7 mph60%29.85 "Hg16 mi
12:00 PM76 °FSunny.6 mph62%29.85 "Hg16 mi
11:00 AM76 °FPassing clouds.5 mph61%29.85 "Hg22 mi
10:00 AM73 °FScattered clouds.5 mph72%29.86 "Hg22 mi
9:00 AM73 °FPartly sunny.2 mph78%29.87 "Hg13 mi
8:00 AM68 °FLow clouds.2 mph89%29.86 "Hg12 mi
Weather by CustomWeather, © 2014

See weather overviewHow to use our weather pages